Wind_Speed
11 12 12 15 21 18 17 18 20 22 24 23 20 18 21 30 32 26 33 32 31 26 28 26 20 10 7 8 10 9 10 11 15 20 23 26 25 25 24 25 23 21 22 22
14 12 15 20 24 22 24 24 26 24 27 22 25 32 26 31 31 32 35 33 33 28 31 30 22 10 3 5 6 7 9 12 19 18 20 24 25 24 23 23 23 24 24 23
9 11 11 11 23 16 21 22 23 23 22 16 20 23 27 24 29 31 37 25 15 12 21 23 19 10 7 6 5 8 10 14 15 18 21 26 23 24 23 23 23 23 23 23
8 8 8 17 7 14 17 19 21 17 18 19 24 38 30 11 11 7 8 7 14 13 10 12 9 16 11 12 12 10 12 13 16 20 22 24 22 24 24 24 24 23 23 20
7 10 13 21 9 12 15 23 18 12 18 20 21 24 8 9 5 11 15 13 8 13 9 9 8 12 15 15 17 17 15 16 16 19 24 26 25 26 24 25 22 22 20 19
6 4 6 16 12 22 17 18 12 9 6 10 20 10 6 17 19 18 17 19 9 7 8 9 7 8 13 16 20 23 21 13 15 22 25 26 27 28 28 23 23 23 21 17
9 6 6 2 12 22 5 7 18 18 14 13 3 7 26 24 22 22 23 22 19 15 13 9 6 9 14 19 21 21 20 20 21 23 27 28 31 31 26 26 25 24 19 16
2 2 5 4 2 1 7 20 19 22 21 14 13 18 9 11 17 22 21 18 16 16 10 4 2 4 9 12 13 17 19 26 25 25 30 32 33 30 29 27 25 25 21 19
2 4 15 16 8 7 13 14 12 22 25 20 20 4 8 12 11 21 21 21 15 12 8 3 3 5 6 9 12 14 18 22 21 23 29 32 32 33 31 26 25 26 24 21
3 5 11 19 7 5 1 1 5 13 20 23 18 14 8 6 14 22 22 21 15 9 4 0 3 1 2 3 6 10 14 18 20 25 29 32 33 31 29 29 29 28 26 23
10 12 12 19 23 13 10 8 9 10 13 19 20 11 11 11 13 19 22 24 19 9 6 2 4 3 2 3 2 6 11 17 21 26 29 31 31 29 30 29 26 27 27 24
9 19 11 18 23 26 26 20 17 15 10 13 14 19 7 12 8 7 15 20 15 7 7 6 4 3 2 3 3 6 13 19 22 27 30 30 28 28 25 23 23 23 21 19
14 24 24 13 21 21 19 18 18 21 20 21 24 19 12 7 10 5 13 12 10 6 8 8 8 3 2 3 5 9 13 19 21 25 28 27 28 29 28 25 20 17 17 18
29 24 12 15 11 17 16 20 19 19 15 13 20 23 21 19 14 10 10 6 6 8 10 11 10 5 4 6 9 12 14 17 19 23 26 26 27 28 25 24 23 21 20 21
16 16 12 13 19 23 18 17 20 21 19 21 23 23 19 21 24 22 22 18 14 12 13 13 10 9 8 9 12 13 16 19 19 21 23 24 25 24 22 21 21 23 24 23
19 17 18 17 15 17 17 14 16 17 20 20 20 20 23 18 9 23 18 15 14 16 15 12 9 10 10 12 15 16 18 18 20 20 22 24 24 22 19 20 21 24 27 27
17 14 17 18 18 17 12 14 16 18 18 18 17 13 12 10 6 19 18 13 21 21 16 12 11 10 11 16 19 20 21 20 20 22 23 23 21 19 18 18 20 23 27 28
15 17 19 18 16 18 18 16 17 17 19 20 22 18 14 11 15 14 11 17 23 18 13 11 12 12 14 19 21 22 23 23 22 22 22 21 19 19 18 16 16 15 16 16
9 10 16 19 17 17 16 17 20 21 21 18 15 15 11 7 7 8 11 16 16 13 12 11 11 13 17 20 22 23 25 24 22 21 19 18 18 18 18 16 14 15 15 15
17 14 13 15 15 13 16 17 17 18 16 16 13 13 7 4 4 4 7 12 13 12 11 11 13 15 17 20 21 22 23 22 21 20 18 16 15 17 17 16 15 14 19 21
13 14 15 15 15 15 14 17 18 17 16 14 12 11 9 9 7 10 8 12 13 11 11 11 15 17 18 20 21 21 20 20 20 19 16 14 13 12 16 18 17 18 20 20
14 14 15 14 13 15 12 17 16 15 13 11 10 11 11 9 8 6 6 6 7 8 10 14 16 17 20 22 22 19 17 16 16 16 16 17 15 14 15 17 17 21 21 19
13 13 14 13 13 12 12 16 14 11 8 4 6 8 8 7 5 7 7 7 6 10 13 15 16 16 19 23 22 18 16 16 16 15 15 15 16 15 16 16 16 17 18 18
14 13 11 11 12 8 10 14 13 10 6 2 3 5 6 6 7 7 6 7 11 14 15 16 17 17 18 24 22 18 17 16 14 15 15 15 15 14 12 14 15 14 16 16
12 12 12 11 12 11 8 9 9 11 5 2 3 4 5 6 6 9 8 12 17 17 16 16 16 16 15 17 24 17 15 15 13 12 14 12 12 12 12 13 13 14 14 14
12 12 11 11 8 12 8 5 5 5 3 1 2 3 5 5 6 9 12 17 18 16 15 17 16 16 15 15 17 16 15 15 13 12 12 12 11 11 11 12 12 12 12 13
11 11 10 10 11 7 7 4 1 1 1 1 3 4 5 7 10 12 15 18 16 14 14 17 17 17 16 15 14 14 12 11 10 10 11 11 10 11 11 11 11 11 11 12
Wind_Direction
265 285 298 290 285 289 282 275 274 286 283 280 280 286 250 245 262 262 253 248 257 246 233 233 228 215 196 161 185 193 196 209 227 216 208 208 207 208 210 209 206 201 197 194
277 282 280 284 281 280 279 281 276 280 280 289 312 302 268 245 247 249 248 247 246 252 235 215 221 224 236 234 198 170 163 189 208 205 216 219 220 214 208 203 202 200 198 198
271 284 305 293 263 270 266 267 266 269 283 303 292 291 281 272 260 244 247 230 212 215 192 199 230 221 235 250 250 217 176 194 204 211 214 218 217 210 203 203 204 206 204 202
263 298 260 251 267 247 259 273 277 268 286 289 292 286 275 339 236 230 237 224 195 178 193 183 206 235 234 235 241 233 217 209 211 213 212 216 211 206 204 206 206 204 205 203
228 240 269 292 255 267 265 275 282 244 266 281 317 327 261 279 209 176 149 108 83 138 117 104 193 227 221 235 243 236 231 225 220 221 216 215 211 212 209 202 200 205 206 193
243 235 231 276 10 342 307 279 16 9 307 299 324 346 273 230 188 171 151 138 178 188 195 195 183 211 230 229 238 238 236 253 241 231 226 222 217 210 202 202 203 204 198 199
229 242 256 250 351 347 321 283 333 324 303 318 313 311 294 176 169 157 150 155 163 170 190 211 232 243 234 226 236 251 246 253 243 239 229 219 213 207 203 202 197 194 196 195
254 211 272 349 352 146 252 307 310 330 313 307 320 319 259 284 191 154 150 153 162 170 181 179 169 187 215 229 251 256 252 244 240 232 222 215 208 201 203 199 193 190 195 190
263 239 291 296 229 268 291 302 343 342 322 322 321 304 290 283 294 158 166 154 167 180 179 134 105 158 203 228 235 240 243 241 237 227 221 213 202 201 198 195 189 189 195 198
208 242 288 316 224 249 10 19 303 341 321 333 324 1 10 194 227 180 166 157 162 177 200 197 353 6 263 234 221 223 239 231 221 215 209 203 202 204 197 192 193 194 202 205
286 289 331 309 304 260 261 279 294 311 314 326 325 340 352 354 333 195 165 159 162 179 207 276 306 285 305 310 257 213 217 214 210 208 205 200 204 202 200 207 211 206 208 211
268 283 268 279 302 301 290 296 303 292 298 305 319 306 294 332 236 176 166 167 156 196 222 245 257 273 293 292 248 211 201 201 203 201 200 202 199 196 205 211 211 214 215 212
284 291 294 311 307 318 337 333 320 302 301 295 291 290 259 215 240 127 134 155 163 200 248 258 269 262 257 239 230 210 206 198 200 204 205 205 202 204 203 206 215 214 208 219
285 290 301 312 316 314 309 312 305 302 305 302 293 292 281 259 244 235 259 243 229 226 249 260 269 272 214 207 217 209 206 207 203 206 210 208 208 210 211 208 202 194 207 213
300 308 297 290 295 301 309 304 308 308 304 301 294 287 300 291 238 235 235 235 241 254 246 247 264 260 224 210 218 209 206 208 207 209 212 212 210 215 217 215 213 212 210 213
317 299 285 302 308 312 321 305 302 307 313 332 318 296 282 276 281 247 226 225 238 243 236 242 259 251 230 217 216 208 208 212 208 206 206 207 211 214 214 214 215 218 220 224
301 315 322 319 319 317 318 301 303 295 308 315 324 329 284 315 292 231 229 249 244 223 238 244 255 248 229 223 217 208 206 206 203 203 202 207 212 216 220 220 225 228 227 227
285 291 294 295 306 310 310 299 289 290 293 289 296 312 321 287 285 276 260 221 214 218 235 252 258 243 227 222 212 210 206 202 201 203 208 212 214 215 221 224 228 227 222 222
296 298 300 310 312 306 300 299 297 295 293 295 294 296 307 317 281 254 230 213 213 226 249 256 252 229 220 211 209 207 206 203 202 205 209 211 212 217 220 222 223 226 234 235
314 314 317 315 309 308 303 308 309 305 299 292 281 282 275 304 339 285 248 230 235 244 250 242 229 206 200 201 203 204 204 202 204 204 202 205 209 211 210 217 223 224 230 239
333 327 324 319 317 315 319 323 315 310 307 290 266 257 245 260 274 300 275 239 242 240 234 208 192 186 189 190 193 195 197 199 199 198 199 201 203 208 216 221 224 227 233 239
328 327 325 324 323 321 329 333 326 320 315 292 239 229 234 246 274 276 256 243 216 196 181 178 180 182 182 182 185 184 182 185 188 197 206 213 218 219 222 230 231 223 232 245
331 328 328 333 331 330 332 336 338 336 339 313 221 227 231 238 270 247 219 200 199 181 176 174 173 172 175 178 179 186 186 188 192 208 216 221 226 234 237 234 239 242 240 243
344 343 342 338 337 337 332 338 353 350 346 338 214 214 224 232 215 210 197 187 169 166 166 166 166 167 172 179 185 189 195 197 208 216 217 223 232 236 239 240 238 238 238 238
346 349 349 345 349 342 328 328 330 347 2 72 137 163 183 197 205 187 178 169 166 165 165 166 168 172 175 183 194 201 202 209 216 215 220 226 232 229 230 235 234 234 230 237
355 355 354 352 339 341 331 346 335 346 17 76 122 143 169 179 171 166 168 172 171 169 172 171 178 185 188 188 195 206 211 216 223 219 221 225 226 226 226 231 231 232 241 243
355 355 358 352 352 358 8 5 24 15 318 295 154 148 160 157 158 167 171 171 171 175 175 179 183 188 192 196 199 206 211 206 208 214 214 215 220 222 231 232 231 240 246 250
Height
1458 1457 1461 1460 1453 1454 1457 1453 1455 1442 1435 1427 1426 1421 1415 1412 1408 1408 1408 1408 1407 1410 1412 1412 1413 1412 1411 1407 1416 1413 1408 1413 1420 1422 1420 1427 1429 1431 1434 1437 1441 1444 1448 1452
1462 1460 1458 1455 1445 1447 1444 1442 1435 1430 1423 1421 1417 1414 1408 1402 1398 1396 1398 1398 1402 1400 1399 1404 1408 1407 1402 1407 1410 1409 1406 1414 1422 1416 1423 1427 1430 1431 1434 1437 1440 1443 1447 1452
1465 1460 1460 1464 1436 1441 1435 1431 1428 1426 1417 1416 1411 1406 1398 1391 1387 1389 1390 1392 1392 1395 1399 1401 1406 1401 1403 1405 1407 1410 1407 1413 1417 1417 1419 1428 1427 1429 1430 1435 1439 1443 1446 1448
1468 1463 1477 1435 1429 1429 1426 1419 1414 1413 1410 1409 1406 1396 1392 1385 1383 1383 1385 1386 1389 1392 1395 1395 1400 1403 1401 1404 1407 1407 1408 1411 1415 1416 1418 1426 1428 1428 1428 1432 1437 1440 1445 1447
1466 1460 1444 1425 1421 1425 1422 1414 1408 1407 1403 1400 1398 1388 1382 1384 1385 1382 1379 1384 1392 1391 1393 1396 1398 1399 1401 1404 1404 1404 1407 1408 1411 1412 1417 1421 1419 1424 1427 1431 1437 1440 1444 1446
1450 1449 1447 1416 1419 1417 1411 1407 1404 1400 1400 1400 1394 1389 1383 1377 1380 1379 1379 1377 1389 1390 1392 1397 1397 1394 1395 1398 1398 1400 1404 1404 1406 1410 1414 1416 1419 1421 1424 1429 1434 1438 1442 1446
1441 1441 1427 1418 1414 1412 1419 1415 1406 1402 1399 1396 1394 1388 1381 1379 1376 1376 1376 1380 1384 1389 1392 1395 1395 1394 1393 1394 1395 1398 1400 1401 1404 1406 1410 1412 1414 1420 1425 1427 1432 1435 1441 1445
1433 1442 1442 1411 1411 1418 1413 1405 1404 1400 1396 1394 1390 1386 1385 1384 1378 1377 1376 1383 1386 1385 1389 1391 1392 1392 1392 1391 1393 1396 1398 1400 1401 1402 1406 1409 1413 1419 1423 1425 1430 1436 1439 1442
1426 1427 1412 1409 1406 1406 1406 1404 1401 1398 1394 1393 1389 1387 1384 1376 1376 1374 1378 1380 1385 1385 1387 1389 1390 1390 1390 1391 1391 1393 1395 1396 1397 1399 1402 1407 1412 1417 1421 1426 1430 1434 1437 1441
1423 1411 1406 1404 1403 1401 1400 1398 1396 1394 1393 1390 1387 1385 1385 1381 1379 1377 1373 1378 1382 1384 1386 1386 1387 1387 1388 1389 1389 1390 1391 1392 1393 1396 1400 1406 1412 1416 1421 1424 1428 1431 1435 1439
1410 1404 1402 1399 1399 1396 1394 1391 1389 1389 1387 1385 1384 1381 1381 1381 1379 1376 1374 1373 1378 1380 1383 1383 1384 1385 1384 1384 1385 1387 1389 1391 1393 1396 1400 1405 1411 1415 1418 1422 1424 1427 1432 1436
1406 1400 1400 1395 1395 1392 1388 1385 1384 1383 1382 1382 1383 1381 1380 1379 1381 1376 1374 1373 1375 1379 1381 1383 1382 1381 1380 1381 1383 1384 1387 1389 1392 1396 1400 1404 1409 1414 1418 1421 1424 1427 1431 1434
1397 1395 1392 1389 1387 1385 1383 1381 1379 1377 1377 1376 1376 1378 1376 1375 1375 1372 1372 1371 1372 1376 1380 1381 1382 1377 1377 1379 1381 1383 1386 1388 1391 1396 1400 1404 1408 1412 1415 1420 1423 1426 1430 1433
1390 1387 1383 1382 1382 1381 1379 1377 1374 1372 1371 1369 1369 1369 1371 1371 1368 1369 1371 1371 1371 1373 1376 1378 1378 1376 1377 1376 1379 1382 1385 1388 1390 1394 1398 1402 1407 1410 1414 1417 1420 1423 1428 1431
1384 1382 1380 1379 1377 1375 1373 1371 1369 1368 1367 1364 1363 1362 1362 1362 1361 1363 1364 1366 1368 1370 1372 1373 1373 1374 1376 1375 1377 1380 1383 1388 1390 1393 1398 1402 1406 1409 1412 1416 1419 1422 1425 1429
1379 1376 1374 1373 1371 1370 1368 1367 1366 1365 1362 1359 1357 1356 1356 1356 1355 1357 1358 1360 1363 1365 1368 1367 1368 1370 1373 1374 1376 1378 1382 1387 1389 1392 1397 1400 1403 1407 1410 1413 1416 1420 1422 1424
1374 1370 1369 1367 1367 1365 1364 1363 1362 1360 1359 1357 1355 1352 1351 1351 1350 1350 1355 1356 1359 1361 1362 1362 1363 1365 1369 1371 1374 1376 1379 1384 1388 1391 1395 1398 1401 1404 1407 1410 1413 1415 1418 1421
1371 1369 1368 1365 1363 1360 1358 1357 1356 1355 1354 1353 1351 1350 1348 1347 1348 1348 1349 1350 1353 1355 1356 1357 1359 1361 1365 1368 1371 1374 1378 1382 1386 1389 1393 1397 1400 1403 1405 1408 1410 1412 1415 1418
1368 1365 1363 1360 1358 1356 1354 1353 1351 1349 1348 1347 1346 1346 1345 1343 1343 1344 1344 1346 1347 1349 1351 1353 1354 1357 1361 1365 1368 1372 1376 1381 1385 1388 1392 1395 1398 1400 1403 1406 1409 1411 1413 1416
1363 1361 1359 1357 1354 1352 1350 1348 1345 1343 1342 1341 1340 1341 1341 1340 1341 1341 1342 1343 1344 1345 1346 1348 1351 1354 1358 1362 1367 1371 1375 1379 1383 1386 1390 1393 1396 1399 1402 1405 1407 1410 1411 1413
1360 1358 1355 1353 1350 1348 1346 1344 1341 1338 1336 1335 1335 1336 1337 1338 1338 1338 1338 1338 1340 1341 1343 1345 1348 1352 1357 1361 1366 1370 1374 1378 1381 1385 1388 1391 1395 1398 1400 1402 1405 1407 1408 1410
1357 1355 1352 1350 1347 1345 1343 1341 1337 1334 1331 1330 1330 1332 1333 1335 1335 1336 1336 1337 1338 1340 1341 1344 1348 1352 1356 1361 1365 1369 1373 1377 1381 1385 1387 1390 1393 1395 1398 1400 1401 1403 1404 1406
1356 1353 1350 1347 1345 1343 1341 1338 1335 1332 1329 1328 1328 1330 1331 1332 1333 1334 1335 1337 1338 1340 1342 1345 1349 1353 1357 1361 1365 1369 1374 1377 1380 1383 1386 1388 1390 1393 1394 1396 1397 1399 1401 1402
1354 1351 1348 1346 1344 1342 1340 1338 1335 1332 1329 1328 1328 1329 1330 1331 1332 1333 1335 1337 1339 1341 1344 1347 1351 1354 1358 1362 1366 1369 1373 1377 1379 1381 1384 1386 1388 1389 1391 1392 1393 1395 1397 1398
1353 1350 1347 1345 1343 1340 1338 1337 1335 1333 1330 1329 1328 1329 1329 1330 1332 1333 1335 1337 1340 1342 1346 1349 1352 1355 1359 1362 1366 1369 1373 1375 1377 1379 1381 1382 1384 1386 1387 1388 1390 1392 1393 1395
1352 1349 1347 1344 1342 1339 1337 1336 1335 1333 1332 1331 1330 1330 1330 1331 1332 1334 1336 1338 1341 1344 1347 1350 1353 1356 1360 1363 1366 1369 1371 1373 1375 1376 1378 1379 1381 1383 1384 1386 1387 1389 1390 1392
1351 1349 1346 1344 1342 1339 1337 1336 1335 1334 1333 1332 1332 1332 1332 1333 1334 1336 1337 1340 1343 1346 1348 1351 1354 1357 1359 1362 1365 1367 1368 1370 1372 1373 1375 1377 1378 1380 1381 1383 1385 1386 1388 1389